Location: Shepherdstown, WV
(39.4326°N, 77.8042°W)
Time: 20:22:16
(UTC-04:00)

Vanguard 2 - All Passes

Search period start: 28 July 2021 00:00
Search period end: 07 August 2021 00:00
Orbit: 552 x 2937 km, 32.9° (Epoch: 28 July)

Date Brightness Start Highest point End Pass type
(mag) Time Alt. Az. Time Alt. Az. Time Alt. Az.
28 Jul - 05:18:38 10° SSE 05:19:53 11° SE 05:21:15 10° SE visible
28 Jul - 07:22:28 10° SW 07:27:05 39° SSE 07:34:04 10° E daylight
28 Jul - 09:29:18 10° WSW 09:35:31 53° S 09:45:55 10° ESE daylight
28 Jul - 11:37:09 10° W 11:45:03 39° SSW 11:57:21 10° SE daylight
28 Jul - 13:47:37 10° WSW 13:55:19 20° SSW 14:05:03 10° S daylight
29 Jul - 05:34:26 10° S 05:37:11 17° SSE 05:40:26 10° ESE visible
29 Jul - 07:39:53 10° WSW 07:44:38 44° SSE 07:51:58 10° E daylight
29 Jul - 09:46:57 10° W 09:53:14 49° S 10:03:36 10° ESE daylight
29 Jul - 11:55:08 10° W 12:02:49 32° SSW 12:14:14 10° SE daylight
29 Jul - 14:07:39 10° WSW 14:13:04 14° SSW 14:19:21 10° S daylight
30 Jul - 05:51:12 10° SSW 05:54:33 23° SSE 05:58:44 10° ESE daylight
30 Jul - 07:57:24 10° WSW 08:02:15 47° S 08:09:48 10° ESE daylight
30 Jul - 10:04:39 10° W 10:10:57 43° S 10:21:08 10° SE daylight
30 Jul - 12:13:23 10° WSW 12:20:35 25° SSW 12:30:43 10° SSE daylight
31 Jul - 06:08:19 10° SW 06:12:00 29° SSE 06:16:46 10° ESE daylight
31 Jul - 08:14:58 10° WSW 08:19:53 47° S 08:27:36 10° ESE daylight
31 Jul - 10:22:28 10° W 10:28:41 36° SSW 10:38:28 10° SE daylight
31 Jul - 12:32:06 10° WSW 12:38:21 19° SSW 12:46:33 10° S daylight
01 Aug - 04:21:08 10° SSE 04:22:10 11° SSE 04:23:13 10° SE visible
01 Aug - 06:25:39 10° SW 06:29:31 35° SSE 06:34:40 10° ESE daylight
01 Aug - 08:32:35 10° WSW 08:37:32 44° S 08:45:17 10° ESE daylight
01 Aug - 10:40:23 10° WSW 10:46:26 30° SSW 10:55:30 10° SE daylight
01 Aug - 12:51:55 10° SW 12:56:09 13° SSW 13:01:08 10° S daylight
02 Aug - 04:37:05 10° SSW 04:39:36 16° SSE 04:42:15 10° ESE visible
02 Aug - 06:43:07 10° WSW 06:47:05 39° S 06:52:29 10° ESE daylight
02 Aug - 08:50:16 10° WSW 08:55:14 39° S 09:02:51 10° ESE daylight
02 Aug - 10:58:35 10° WSW 11:04:12 23° SSW 11:12:07 10° SSE daylight
03 Aug - 04:53:58 10° SSW 04:57:04 22° SSE 05:00:26 10° ESE visible
03 Aug - 07:00:40 10° WSW 07:04:41 40° S 07:10:14 10° ESE daylight
03 Aug - 09:08:03 10° WSW 09:12:56 33° SSW 09:20:14 10° SE daylight
03 Aug - 11:17:14 10° WSW 11:21:58 17° SSW 11:28:06 10° SSE daylight
04 Aug - 05:11:12 10° SW 05:14:36 27° SSE 05:18:22 10° ESE visible
04 Aug - 07:18:16 10° WSW 07:22:19 38° S 07:27:55 10° ESE daylight
04 Aug - 09:25:58 10° WSW 09:30:38 26° SSW 09:37:20 10° SE daylight
04 Aug - 11:37:19 10° SW 11:39:46 11° SSW 11:42:32 10° S daylight
05 Aug - 03:22:25 10° S 03:24:35 14° SSE 03:26:38 10° SE visible
05 Aug - 05:28:36 10° SW 05:32:09 32° S 05:36:11 10° ESE visible
05 Aug - 07:35:57 10° WSW 07:39:57 34° S 07:45:29 10° ESE daylight
05 Aug - 09:44:08 10° WSW 09:48:22 20° SSW 09:54:03 10° SSE daylight
06 Aug - 03:39:03 10° SSW 03:42:08 19° SSE 03:44:59 10° ESE visible
06 Aug - 05:46:08 10° WSW 05:49:45 34° S 05:53:54 10° ESE visible
06 Aug - 07:53:43 10° WSW 07:57:37 29° S 08:02:53 10° SE daylight
06 Aug - 10:02:53 10° SW 10:06:06 14° SSW 10:10:02 10° S daylight
